EW7458 Weather Reports


time (UTC)temp
C
wind
direction
speed
KPH
gust
KPH
rain 1hr
cm
rain 24hr
cm
rain mn
cm
humidity
%
barometer
mb
20260507145026 15 259 3.2 4.8 0.00 0.69 0.08 56 1008.9
20260507144024 15 291 3.2 4.8 0.00 0.69 0.08 58 1008.8
20260507143022 13 321 3.2 4.8 0.00 0.69 0.08 63 1008.8
20260507142041 14 336 3.2 4.8 0.00 0.69 0.08 59 1008.8
20260507141049 13 356 3.2 6.4 0.00 0.69 0.08 57 1008.7
20260507140027 15 301 4.8 8.0 0.00 0.69 0.08 57 1008.7
20260507135026 15 355 6.4 11.3 0.00 0.69 0.08 52 1008.6
20260507134024 14 347 4.8 8.0 0.00 0.69 0.08 56 1008.7
20260507133021 13 301 1.6 4.8 0.00 0.69 0.08 61 1008.8
20260507132019 13 238 3.2 4.8 0.00 0.69 0.08 62 1009.0
20260507131029 13 297 3.2 6.4 0.00 0.69 0.08 64 1009.1
20260507130026 12 338 3.2 9.7 0.00 0.69 0.08 66 1009.1
20260507125024 12 329 1.6 6.4 0.00 0.69 0.08 68 1009.1
20260507124022 12 6 4.8 9.7 0.00 0.69 0.08 67 1009.1
20260507123020 11 343 4.8 9.7 0.00 0.69 0.08 71 1009.2
20260507122029 11 343 3.2 6.4 0.00 0.69 0.08 75 1009.3
20260507121047 10 291 1.6 4.8 0.00 0.69 0.08 81 1009.3
20260507120025 10 319 1.6 6.4 0.00 0.69 0.08 86 1009.3
20260507115025 9 293 1.6 3.2 0.00 0.69 0.08 89 1009.3
20260507114021 8 0.0 0.0 0.00 0.69 0.08 90 1009.3
20260507113029 8 0.0 0.0 0.00 0.69 0.08 90 1009.1
20260507112028 8 0.0 0.0 0.00 0.69 0.08 90 1009.1
20260507111025 8 0.0 0.0 0.00 0.69 0.08 91 1009.2
20260507110025 8 0.0 0.0 0.00 0.69 0.08 93 1009.1
20260507105021 8 0.0 0.0 0.00 0.69 0.08 93 1008.9
20260507104019 8 0.0 0.0 0.00 0.69 0.08 93 1008.6
20260507103028 8 0.0 0.0 0.00 0.69 0.08 94 1008.6
20260507102046 8 0.0 0.0 0.00 0.69 0.08 94 1008.5
20260507101205 8 0.0 0.0 0.00 0.69 0.08 94 1008.6
20260507100023 8 0.0 0.0 0.00 0.69 0.08 94 1008.4
20260507095020 8 0.0 0.0 0.00 0.69 0.08 94 1008.6
20260507094029 8 0.0 0.0 0.00 0.69 0.08 94 1008.8
20260507093027 8 0.0 0.0 0.00 0.69 0.08 94 1008.7
20260507092025 8 0.0 0.0 0.00 0.69 0.08 95 1008.6
20260507091023 8 0.0 0.0 0.00 0.69 0.08 95 1008.7
20260507090041 8 0.0 0.0 0.00 0.69 0.08 95 1008.9
20260507085019 8 346 0.0 1.6 0.05 0.69 0.08 95 1008.7
20260507084028 8 204 0.0 1.6 0.08 0.69 0.08 94 1008.5
20260507083026 8 0.0 0.0 0.08 0.69 0.08 93 1008.4
20260507082024 9 0.0 0.0 0.08 0.69 0.08 93 1008.3
20260507081022 9 0.0 0.0 0.08 0.69 0.08 92 1008.3
20260507080020 9 0.0 0.0 0.08 0.69 0.08 91 1008.0
20260507075029 10 234 0.0 3.2 0.03 0.64 0.03 90 1008.3
20260507074047 10 202 1.6 4.8 0.00 0.61 0.00 90 1008.5
20260507073024 10 0.0 0.0 0.00 0.61 0.00 90 1008.3
20260507072023 10 0.0 0.0 0.00 0.61 0.00 90 1007.9
20260507071020 10 160 0.0 3.2 0.00 0.61 0.00 90 1007.9
20260507070030 10 218 1.6 4.8 0.00 0.61 0.00 91 1008.0
20260507065027 10 0.0 0.0 0.00 0.61 0.00 90 1007.9
20260507064025 10 192 0.0 1.6 0.00 0.61 0.00 90 1007.7
20260507063045 10 0.0 0.0 0.00 0.61 0.00 90 1007.9
20260507062022 10 310 0.0 3.2 0.00 0.61 0.00 90 1007.6
20260507061019 10 286 0.0 3.2 0.00 0.61 0.00 91 1007.6
20260507060048 10 0.0 0.0 0.00 0.61 0.00 91 1007.7
20260507055026 10 0.0 0.0 0.00 0.61 0.00 92 1008.1
20260507054025 11 290 1.6 4.8 0.00 0.61 0.00 92 1008.2
20260507053038 11 0.0 0.0 0.00 0.61 0.00 93 1008.3
20260507052020 11 0.0 0.0 0.00 0.61 0.00 93 1008.2
20260507051032 11 0.0 0.0 0.00 0.61 0.00 92 1008.1
20260507050027 11 0.0 0.0 0.00 0.61 0.00 92 1008.1
20260507045045 11 341 1.6 4.8 0.00 0.61 0.00 92 1007.9
20260507044023 11 0.0 0.0 0.00 0.61 0.00 94 1008.0
20260507043102 11 328 1.6 3.2 0.00 0.61 0.00 93 1008.0
20260507042039 12 344 1.6 3.2 0.00 0.61 0.00 94 1008.1
20260507041029 12 312 0.0 3.2 0.00 0.61 0.00 94 1008.2
20260507040027 12 0.0 0.0 0.00 0.61 0.00 94 1008.0
20260507035107 12 0.0 0.0 0.00 0.61 0.61 94 1007.8
20260507034022 13 260 0.0 1.6 0.00 0.61 0.61 95 1007.5
20260507033040 13 313 3.2 6.4 0.00 0.61 0.61 96 1007.3
20260507032031 13 0.0 0.0 0.00 0.61 0.61 97 1007.2
20260507031026 13 0.0 0.0 0.00 0.61 0.61 97 1007.0
20260507030025 14 0.0 0.0 0.00 0.61 0.61 97 1007.1
20260507025023 15 0.0 0.0 0.00 0.61 0.61 97 1007.1
20260507024021 15 328 0.0 1.6 0.00 0.61 0.61 97 1006.9
20260507023029 15 0.0 0.0 0.00 0.61 0.61 97 1006.9
20260507022027 15 0.0 0.0 0.00 0.61 0.61 97 1006.7
20260507021025 15 201 0.0 4.8 0.00 0.61 0.61 97 1006.4
20260507020026 15 184 1.6 12.9 0.00 0.61 0.61 97 1006.5
20260507015021 15 213 4.8 8.0 0.00 0.61 0.61 97 1006.4
20260507014021 15 188 4.8 11.3 0.00 0.61 0.61 97 1006.5
20260507013030 15 205 3.2 8.0 0.00 0.61 0.61 97 1006.5
20260507012026 15 210 4.8 12.9 0.00 0.61 0.61 97 1006.5
20260507011024 15 200 4.8 12.9 0.00 0.61 0.61 97 1006.5
20260507010042 15 222 3.2 6.4 0.00 0.61 0.61 97 1006.5
20260507005020 15 252 1.6 3.2 0.00 0.61 0.61 97 1006.5
20260507004029 15 195 1.6 6.4 0.00 0.61 0.61 97 1006.4
20260507003047 15 207 1.6 8.0 0.00 0.61 0.61 97 1006.2
20260507002025 15 200 1.6 4.8 0.03 0.61 0.61 97 1006.3
20260507001025 15 217 4.8 9.7 0.03 0.61 0.61 97 1006.4
20260507000022 15 216 3.2 6.4 0.05 0.61 0.61 97 1006.2
20260506235019 15 222 3.2 9.7 0.08 0.61 0.61 97 1006.2
20260506234029 15 223 3.2 4.8 0.10 0.61 0.61 97 1006.1
20260506233026 15 188 4.8 12.9 0.10 0.61 0.61 96 1006.1
20260506232144 15 226 1.6 4.8 0.08 0.58 0.58 96 1006.2
20260506231042 15 198 3.2 12.9 0.10 0.58 0.58 96 1006.2
20260506230019 15 240 3.2 8.0 0.08 0.56 0.56 96 1006.3
20260506225029 15 207 4.8 9.7 0.08 0.53 0.53 96 1006.5
20260506224027 15 171 4.8 8.0 0.08 0.51 0.51 95 1006.4
20260506223024 15 206 4.8 11.3 0.10 0.51 0.51 95 1006.4
20260506222024 15 233 4.8 9.7 0.10 0.51 0.51 95 1006.4
20260506221021 15 213 3.2 8.0 0.10 0.48 0.48 95 1006.5
20260506220030 15 240 6.4 11.3 0.13 0.48 0.48 95 1006.5
20260506215028 15 273 4.8 9.7 0.13 0.46 0.46 95 1006.6
20260506214025 15 265 6.4 9.7 0.15 0.43 0.43 94 1006.5
20260506213023 15 255 6.4 9.7 0.15 0.41 0.41 94 1006.6
20260506212021 15 257 6.4 11.3 0.18 0.41 0.41 94 1006.7
20260506211019 15 267 6.4 14.5 0.20 0.38 0.38 94 1006.9
20260506210028 15 277 4.8 8.0 0.18 0.36 0.36 94 1006.9
20260506205026 16 241 6.4 9.7 0.15 0.33 0.33 94 1007.0
20260506204024 16 263 4.8 8.0 0.10 0.28 0.28 93 1007.1
20260506203024 16 266 4.8 9.7 0.08 0.25 0.25 92 1007.1
20260506202020 16 254 6.4 12.9 0.05 0.23 0.23 91 1007.1
20260506201030 16 261 6.4 12.9 0.03 0.18 0.18 89 1007.2
20260506200030 16 266 6.4 14.5 0.03 0.18 0.18 88 1007.2
20260506195025 17 267 4.8 12.9 0.05 0.18 0.18 88 1007.3
20260506194023 16 281 4.8 8.0 0.08 0.18 0.18 90 1007.2
20260506193021 16 257 4.8 8.0 0.10 0.18 0.18 91 1007.1
20260506192020 17 244 1.6 4.8 0.13 0.18 0.18 91 1007.2
20260506191027 17 255 1.6 6.4 0.13 0.15 0.15 89 1007.0
20260506190026 17 266 3.2 6.4 0.15 0.15 0.15 89 1007.4
20260506185024 17 264 4.8 12.9 0.13 0.13 0.13 88 1007.6
20260506184103 17 252 0.0 3.2 0.10 0.10 0.10 88 1007.6
20260506183020 17 257 1.6 4.8 0.08 0.08 0.08 86 1007.8
20260506182028 18 240 1.6 3.2 0.05 0.05 0.05 83 1008.0
20260506181027 18 290 0.0 1.6 0.03 0.03 0.03 77 1007.9
20260506180045 19 0.0 0.0 0.00 0.00 0.00 73 1007.8
20260506175023 20 338 1.6 6.4 0.00 0.00 0.00 69 1007.8
20260506174021 21 258 4.8 11.3 0.00 0.00 0.00 61 1007.8
20260506173029 22 276 6.4 9.7 0.00 0.00 0.00 56 1007.5
20260506172028 22 300 4.8 11.3 0.00 0.00 0.00 55 1007.4
20260506171025 22 274 6.4 9.7 0.00 0.00 0.00 54 1007.5
20260506170023 22 287 11.3 22.5 0.00 0.00 0.00 54 1007.7
20260506165022 22 279 9.7 14.5 0.00 0.00 0.00 55 1007.8
20260506164019 22 193 9.7 14.5 0.00 0.00 0.00 57 1008.0
20260506163048 21 234 8.0 17.7 0.00 0.00 0.00 59 1008.2
20260506162027 21 216 8.0 12.9 0.00 0.00 0.00 59 1008.3
20260506161024 21 248 8.0 16.1 0.00 0.00 0.00 60 1008.5
20260506160022 21 227 8.0 12.9 0.00 0.00 0.00 61 1008.8
20260506155020 21 225 8.0 14.5 0.00 0.00 0.00 61 1009.1
20260506154029 21 210 8.0 12.9 0.00 0.00 0.00 62 1009.2
20260506153027 20 229 4.8 9.7 0.00 0.00 0.00 62 1009.4
20260506152025 21 214 8.0 12.9 0.00 0.00 0.00 62 1009.5
20260506151043 21 210 8.0 19.3 0.00 0.00 0.00 61 1009.6
20260506150021 21 207 9.7 16.1 0.00 0.00 0.00 62 1009.5